Location: Newark
(9.4667°S, 159.8167°E)
Time: 01:53:35
(UTC+00:00)

Courier 1B Rocket - Pass Details

Date: 26 November 2019
Orbit: 921 x 1202 km, 28.2° (Epoch: 14 December)

Event Time Altitude Azimuth Distance (km) Brightness Sun altitude
Rises 13:48:31 0° 254° (WSW) 4,079 - -58.0°
Reaches altitude 10° 13:52:18 10° 238° (WSW) 3,090 - -57.7°
Maximum altitude 13:57:43 20° 192° (SSW) 2,345 - -57.2°
Drops below altitude 10° 14:02:58 10° 146° (SSE) 2,966 - -56.7°
Exits shadow 14:04:17 - 139° (SE) 3,278 8.1 -56.6°
Sets 14:06:30 0° 130° (SE) 3,870 8.6 -56.4°
